GW7375 Weather Reports


time (UTC)temp
F
wind
direction
speed
knots
gust
knots
rain 1hr
in
rain 24hr
in
rain mn
in
humidity
%
barometer
mb
20260510130050 42 19 0.0 2.6 0.00 0.00 0.00 76 1018.7
20260510125542 42 0 0.0 1.7 0.00 0.00 0.00 77 1018.6
20260510125044 41 0 0.0 1.7 0.00 0.00 0.00 77 1018.4
20260510124549 41 0 0.0 0.9 0.00 0.00 0.00 79 1018.5
20260510124042 40 0 0.0 0.9 0.00 0.00 0.00 80 1018.5
20260510123544 40 0 0.0 0.9 0.00 0.00 0.00 81 1018.4
20260510123055 40 0 0.0 0.0 0.00 0.00 0.00 81 1018.4
20260510122544 39 0 0.0 0.0 0.00 0.00 0.00 81 1018.4
20260510122041 39 0 0.0 0.0 0.00 0.00 0.00 82 1018.3
20260510121547 38 0 0.0 0.9 0.00 0.00 0.00 83 1018.2
20260510121043 38 0 0.0 0.9 0.00 0.00 0.00 83 1018.1
20260510120543 37 0 0.0 0.9 0.00 0.00 0.00 83 1018.0
20260510120045 37 0 0.0 0.0 0.00 0.00 0.00 82 1018.0
20260510115542 36 0 0.0 0.9 0.00 0.00 0.00 82 1018.0
20260510115043 36 0 0.0 0.9 0.00 0.00 0.00 82 1018.1
20260510114547 36 0 0.0 0.0 0.00 0.00 0.00 82 1018.0
20260510114042 36 0 0.0 0.0 0.00 0.00 0.00 82 1018.0
20260510113540 35 0 0.0 0.0 0.00 0.00 0.00 81 1018.1
20260510113052 35 0 0.0 0.0 0.00 0.00 0.00 81 1017.7
20260510112542 35 0 0.0 0.0 0.00 0.00 0.00 80 1017.7
20260510112044 35 0 0.0 0.0 0.00 0.00 0.00 80 1017.7
20260510111549 35 0 0.0 0.9 0.00 0.00 0.00 79 1017.9
20260510111041 36 0 0.0 0.9 0.00 0.00 0.00 79 1017.8
20260510110545 36 0 0.0 0.9 0.00 0.00 0.00 79 1017.7
20260510110052 36 0 0.0 0.9 0.00 0.00 0.00 78 1017.8
20260510105539 36 0 0.0 0.0 0.00 0.00 0.00 78 1017.8
20260510105043 36 0 0.0 0.0 0.00 0.00 0.00 78 1017.7
20260510104557 36 0 0.0 0.0 0.00 0.00 0.00 77 1017.6
20260510104044 36 0 0.0 1.7 0.00 0.00 0.00 77 1017.5
20260510103543 36 0 0.0 1.7 0.00 0.00 0.00 77 1017.5
20260510103051 36 109 0.0 0.9 0.00 0.00 0.00 76 1017.4
20260510102543 37 0 0.0 0.9 0.00 0.00 0.00 76 1017.3
20260510102043 37 0 0.0 0.9 0.00 0.00 0.00 76 1017.1
20260510101555 37 0 0.0 1.7 0.00 0.00 0.00 75 1016.9
20260510101042 37 0 0.0 2.6 0.00 0.00 0.00 76 1016.8
20260510100543 37 0 0.9 2.6 0.00 0.00 0.00 76 1016.8
20260510100055 37 62 0.0 1.7 0.00 0.00 0.00 75 1016.7
20260510095543 37 59 0.0 0.9 0.00 0.00 0.00 75 1016.6
20260510095043 38 0 0.0 0.0 0.00 0.00 0.00 75 1016.6
20260510094558 38 0 0.0 0.0 0.00 0.00 0.00 74 1016.6
20260510094039 38 0 0.0 0.0 0.00 0.00 0.00 74 1016.6
20260510093542 38 0 0.0 1.7 0.00 0.00 0.00 74 1016.5
20260510093051 38 0 0.0 1.7 0.00 0.00 0.00 74 1016.5
20260510092539 38 0 0.0 1.7 0.00 0.00 0.00 74 1016.5
20260510092043 38 0 0.0 0.9 0.00 0.00 0.00 74 1016.5
20260510091547 38 0 0.0 0.0 0.00 0.00 0.00 73 1016.4
20260510091047 39 0 0.0 0.0 0.00 0.00 0.00 73 1016.4
20260510090546 39 0 0.0 0.0 0.00 0.00 0.00 73 1016.3
20260510090051 39 0 0.0 0.0 0.00 0.00 0.00 73 1016.2
20260510085542 39 0 0.0 0.0 0.00 0.00 0.00 72 1016.1
20260510085042 40 0 0.0 0.0 0.00 0.00 0.00 72 1016.1
20260510084600 40 0 0.0 0.0 0.00 0.00 0.00 72 1016.0
20260510084043 40 0 0.0 0.0 0.00 0.00 0.00 72 1015.9
20260510083542 40 0 0.0 0.0 0.00 0.00 0.00 72 1015.8
20260510083112 41 0 0.0 0.0 0.00 0.00 0.00 72 1015.8
20260510082543 41 0 0.0 0.0 0.00 0.00 0.00 71 1015.7
20260510082042 41 0 0.0 0.0 0.00 0.00 0.00 70 1015.6
20260510081611 41 0 0.0 0.0 0.00 0.00 0.00 70 1015.6
20260510081044 42 0 0.0 0.0 0.00 0.00 0.00 69 1015.6
20260510080542 42 0 0.0 0.0 0.00 0.00 0.00 68 1015.4
20260510080043 42 0 0.0 0.0 0.00 0.00 0.00 67 1015.4
20260510075543 43 0 0.0 0.0 0.00 0.00 0.00 67 1015.4
20260510075043 43 0 0.0 0.0 0.00 0.00 0.00 66 1015.3
20260510074553 43 0 0.0 0.0 0.00 0.00 0.00 65 1015.3
20260510074046 44 0 0.0 0.0 0.00 0.00 0.00 63 1015.2
20260510073542 44 0 0.0 0.0 0.00 0.00 0.00 62 1015.2
20260510073054 44 0 0.0 0.0 0.00 0.00 0.00 62 1015.3
20260510072541 44 0 0.0 0.0 0.00 0.00 0.00 62 1015.3
20260510072043 44 0 0.0 0.0 0.00 0.00 0.00 63 1015.3
20260510071546 44 0 0.0 0.0 0.00 0.00 0.00 62 1015.3
20260510071042 44 0 0.0 0.0 0.00 0.00 0.00 62 1015.3
20260510070542 44 0 0.0 1.7 0.00 0.00 0.00 62 1015.2
20260510070048 43 0 0.0 1.7 0.00 0.00 0.00 65 1015.2
20260510065546 43 326 0.0 0.9 0.00 0.00 0.00 68 1015.1
20260510065043 43 0 0.0 2.6 0.00 0.00 0.00 67 1015.1
20260510064551 43 0 0.0 2.6 0.00 0.00 0.00 67 1015.1
20260510064043 42 324 0.0 0.9 0.00 0.00 0.00 68 1015.0
20260510063543 42 0 0.0 0.0 0.00 0.00 0.00 68 1015.0
20260510063047 42 0 0.0 0.0 0.00 0.00 0.00 68 1015.0
20260510062545 42 0 0.0 0.0 0.00 0.00 0.00 68 1014.8
20260510062044 42 0 0.0 0.0 0.00 0.00 0.00 67 1014.8
20260510061602 42 0 0.0 0.0 0.00 0.00 0.00 67 1014.8
20260510061044 42 0 0.0 0.0 0.00 0.00 0.00 66 1014.7
20260510060543 42 0 0.0 0.0 0.00 0.00 0.00 66 1014.7
20260510060048 42 0 0.0 0.0 0.00 0.00 0.00 65 1014.6
20260510055543 43 0 0.0 0.0 0.00 0.00 0.00 65 1014.5
20260510055043 43 0 0.0 0.0 0.00 0.00 0.00 64 1014.4
20260510054548 43 0 0.0 0.0 0.00 0.00 0.00 66 1014.3
20260510054043 43 0 0.0 0.0 0.00 0.00 0.00 66 1014.2
20260510053545 43 0 0.0 0.0 0.00 0.00 0.00 65 1014.1
20260510053055 43 0 0.0 0.9 0.00 0.00 0.00 65 1014.1
20260510052543 43 0 0.0 0.9 0.00 0.00 0.00 64 1014.0
20260510052044 43 0 0.0 0.9 0.00 0.00 0.00 63 1014.0
20260510051550 43 0 0.0 0.9 0.00 0.00 0.00 62 1013.9
20260510051045 43 0 0.0 0.0 0.00 0.00 0.00 61 1013.9
20260510050545 43 0 0.0 0.0 0.00 0.00 0.00 60 1013.8
20260510050045 44 0 0.0 0.9 0.00 0.00 0.00 59 1013.8
20260510045540 44 0 0.0 0.9 0.00 0.00 0.00 58 1013.7
20260510045040 44 0 0.0 0.9 0.00 0.00 0.00 56 1013.7
20260510044550 45 0 0.0 0.0 0.00 0.00 0.00 55 1013.7
20260510044039 45 0 0.0 0.0 0.00 0.00 0.00 55 1013.7
20260510043542 45 0 0.0 0.0 0.00 0.00 0.00 54 1013.7
20260510043048 46 0 0.0 0.0 0.00 0.00 0.00 52 1013.7
20260510042543 46 0 0.0 0.0 0.00 0.00 0.00 52 1013.6
20260510042047 46 0 0.0 0.0 0.00 0.00 0.00 51 1013.5
20260510041548 47 0 0.0 0.0 0.00 0.00 0.00 51 1013.5
20260510041043 47 0 0.0 0.0 0.00 0.00 0.00 48 1013.5
20260510040541 48 0 0.0 0.0 0.00 0.00 0.00 48 1013.4
20260510040055 48 0 0.0 0.0 0.00 0.00 0.00 49 1013.4
20260510035542 48 0 0.0 0.0 0.00 0.00 0.00 46 1013.3
20260510035042 48 0 0.0 0.0 0.00 0.00 0.00 45 1013.3
20260510034558 48 0 0.0 1.7 0.00 0.00 0.00 45 1013.2
20260510034040 49 0 0.0 1.7 0.00 0.00 0.00 45 1013.2
20260510033546 49 0 0.0 1.7 0.00 0.00 0.00 46 1013.1
20260510033050 49 0 0.0 1.7 0.00 0.00 0.00 44 1013.1
20260510032539 49 331 0.0 0.0 0.00 0.00 0.00 44 1013.1
20260510032040 50 0 0.0 0.0 0.00 0.00 0.00 44 1013.1
20260510031600 50 0 0.0 0.0 0.00 0.00 0.00 43 1013.0
20260510031039 51 0 0.0 0.0 0.00 0.00 0.00 42 1013.0
20260510030539 51 0 0.0 0.0 0.00 0.00 0.00 40 1013.0
20260510030050 52 0 0.0 0.9 0.00 0.00 0.00 39 1012.9
20260510025539 52 0 0.0 0.9 0.00 0.00 0.00 39 1012.9
20260510025039 53 0 0.0 0.9 0.00 0.00 0.00 38 1012.8
20260510024542 53 0 0.0 0.9 0.00 0.00 0.00 37 1012.7
20260510024041 53 0 0.0 2.6 0.00 0.00 0.00 37 1012.5
20260510023542 54 0 0.0 2.6 0.00 0.00 0.00 36 1012.4
20260510023048 54 336 0.0 2.6 0.00 0.00 0.00 35 1012.3
20260510022543 54 311 0.9 3.5 0.00 0.00 0.00 35 1012.2
20260510022044 54 9 0.9 3.5 0.00 0.00 0.00 35 1012.1
20260510021547 55 0 0.9 3.5 0.00 0.00 0.00 34 1012.0
20260510021042 55 348 0.0 3.5 0.00 0.00 0.00 34 1012.0
20260510020542 55 273 0.9 3.5 0.00 0.00 0.00 33 1011.8
20260510020051 55 0 0.0 6.1 0.00 0.00 0.00 33 1011.7
20260510015543 56 263 1.7 7.0 0.00 0.00 0.00 32 1011.6
20260510015042 56 292 1.7 7.8 0.00 0.00 0.00 32 1011.5
20260510014549 56 317 1.7 7.8 0.00 0.00 0.00 31 1011.4
20260510014042 56 304 1.7 7.0 0.00 0.00 0.00 31 1011.2
20260510013545 56 318 1.7 6.1 0.00 0.00 0.00 31 1011.2
20260510013050 57 305 1.7 5.2 0.00 0.00 0.00 30 1011.1
20260510012545 57 17 1.7 5.2 0.00 0.00 0.00 30 1011.0
20260510012043 57 342 1.7 5.2 0.00 0.00 0.00 30 1010.8
20260510011552 57 304 0.9 7.0 0.00 0.00 0.00 30 1010.8
20260510011044 58 0 1.7 7.0 0.00 0.00 0.00 29 1010.7
20260510010542 58 336 1.7 8.7 0.00 0.00 0.00 29 1010.6
20260510010049 58 323 1.7 8.7 0.00 0.00 0.00 29 1010.5
20260510005544 58 338 1.7 8.7 0.00 0.00 0.00 28 1010.5
20260510005042 58 345 2.6 12.2 0.00 0.00 0.00 29 1010.4
20260510004551 59 342 3.5 12.2 0.00 0.00 0.00 28 1010.2
20260510004042 59 347 5.2 12.2 0.00 0.00 0.00 27 1010.2
20260510003542 59 332 4.3 11.3 0.00 0.00 0.00 26 1010.2
20260510003054 60 281 2.6 10.4 0.00 0.00 0.00 26 1010.0
20260510002545 60 118 3.5 10.4 0.00 0.00 0.00 26 1009.9
20260510002042 60 348 4.3 13.0 0.00 0.00 0.00 25 1009.9
20260510001553 60 336 4.3 13.0 0.00 0.00 0.00 26 1009.8
20260510001043 60 247 3.5 13.0 0.00 0.00 0.00 26 1009.7
20260510000543 60 278 3.5 12.2 0.00 0.00 0.00 27 1009.6
20260510000049 60 301 5.2 11.3 0.00 0.00 0.00 26 1009.6
20260509235545 61 331 3.5 10.4 0.00 0.00 0.00 27 1009.6
20260509235042 61 340 5.2 12.2 0.00 0.00 0.00 27 1009.4
20260509234552 61 322 3.5 13.9 0.00 0.00 0.00 27 1009.3
20260509234045 61 5 6.1 13.9 0.00 0.00 0.00 26 1009.3
20260509233544 61 297 4.3 12.2 0.00 0.00 0.00 27 1009.2
20260509233048 61 270 3.5 12.2 0.00 0.00 0.00 27 1009.2
20260509232542 61 294 5.2 12.2 0.00 0.00 0.00 26 1009.1
20260509232042 61 315 3.5 13.0 0.00 0.00 0.00 26 1009.0
20260509231555 61 254 5.2 15.6 0.00 0.00 0.00 27 1009.0
20260509231042 61 300 6.1 15.6 0.00 0.00 0.00 25 1008.9
20260509230542 61 335 6.1 14.8 0.00 0.00 0.00 27 1008.7
20260509230049 61 350 5.2 13.9 0.00 0.00 0.00 26 1008.8
20260509225541 61 267 5.2 13.0 0.00 0.00 0.00 27 1008.7
20260509225042 61 253 4.3 13.0 0.00 0.00 0.00 27 1008.6
20260509224548 61 349 4.3 13.0 0.00 0.00 0.00 27 1008.6
20260509224042 62 323 3.5 13.0 0.00 0.00 0.00 26 1008.4
20260509223543 62 201 4.3 13.0 0.00 0.00 0.00 26 1008.4
20260509223047 62 338 6.1 12.2 0.00 0.00 0.00 27 1008.3
20260509222542 62 349 3.5 12.2 0.00 0.00 0.00 27 1008.3
20260509222041 62 252 6.1 16.5 0.00 0.00 0.00 27 1008.2
20260509221551 63 343 5.2 16.5 0.00 0.00 0.00 26 1008.0
20260509221042 63 288 4.3 16.5 0.00 0.00 0.00 27 1007.9
20260509220543 63 266 4.3 14.8 0.00 0.00 0.00 27 1007.9
20260509220053 63 254 6.1 14.8 0.00 0.00 0.00 28 1007.9
20260509215542 63 5 7.0 14.8 0.00 0.00 0.00 26 1007.8
20260509215042 63 232 5.2 15.6 0.00 0.00 0.00 28 1007.7
20260509214551 63 11 6.1 15.6 0.00 0.00 0.00 29 1007.7
20260509214042 63 343 7.0 19.1 0.00 0.00 0.00 29 1007.7
20260509213724 63 278 7.0 19.1 0.00 0.00 0.00 29 1007.7
20260509213050 63 13 7.0 17.4 0.00 0.00 0.00 29 1007.5
20260509212546 63 313 5.2 12.2 0.00 0.00 0.00 29 1007.4
20260509212042 63 355 5.2 12.2 0.00 0.00 0.00 30 1007.4
20260509211549 63 319 4.3 18.2 0.00 0.00 0.00 30 1007.4
20260509211042 63 239 5.2 18.2 0.00 0.00 0.00 32 1007.4
20260509210542 63 244 7.8 18.2 0.00 0.00 0.00 30 1007.2
20260509210054 63 277 5.2 12.2 0.00 0.00 0.00 30 1007.1
20260509205541 63 330 6.1 12.2 0.00 0.00 0.00 32 1007.2
20260509205041 63 5 5.2 11.3 0.00 0.00 0.00 32 1007.1
20260509204553 63 227 3.5 13.9 0.00 0.00 0.00 33 1007.1
20260509204112 63 320 6.1 15.6 0.00 0.00 0.00 34 1007.2
20260509203541 63 250 7.0 15.6 0.00 0.00 0.00 34 1007.0
20260509203052 63 223 6.1 14.8 0.00 0.00 0.00 34 1007.0
20260509202541 63 360 8.7 14.8 0.00 0.00 0.00 34 1006.9
20260509202045 63 294 6.1 18.2 0.00 0.00 0.00 34 1007.0
20260509201554 62 292 6.1 18.2 0.00 0.00 0.00 35 1006.9
20260509201042 62 325 7.0 13.0 0.00 0.00 0.00 36 1006.8
20260509200539 62 311 5.2 13.0 0.00 0.00 0.00 36 1006.8
20260509200105 61 285 5.2 13.0 0.00 0.00 0.00 39 1006.9
20260509195543 61 261 5.2 12.2 0.00 0.00 0.00 37 1006.8
20260509195042 61 266 5.2 12.2 0.00 0.00 0.00 38 1006.8
20260509194553 62 360 4.3 14.8 0.00 0.00 0.00 37 1006.7
20260509194040 62 315 6.1 14.8 0.00 0.00 0.00 37 1006.7
20260509193540 62 258 7.0 13.9 0.00 0.00 0.00 38 1006.6
20260509193102 62 292 5.2 13.0 0.00 0.00 0.00 39 1006.6
20260509192540 61 242 2.6 13.0 0.00 0.00 0.00 41 1006.6
20260509192042 61 257 5.2 13.0 0.00 0.00 0.00 40 1006.6
20260509191554 61 294 7.0 17.4 0.00 0.00 0.00 39 1006.7
20260509191041 61 340 7.0 17.4 0.00 0.00 0.00 39 1006.6
20260509190539 61 342 5.2 13.9 0.00 0.00 0.00 40 1006.5
20260509190057 61 296 5.2 13.9 0.00 0.00 0.00 40 1006.4
20260509185539 61 336 7.8 17.4 0.00 0.00 0.00 40 1006.2
20260509185039 61 338 7.8 17.4 0.00 0.00 0.00 40 1006.2
20260509184633 60 302 7.0 15.6 0.00 0.00 0.00 43 1006.2
20260509184043 60 360 3.5 13.9 0.00 0.00 0.00 42 1006.2
20260509183540 60 339 3.5 13.9 0.00 0.00 0.00 43 1006.2
20260509183055 60 319 4.3 11.3 0.00 0.00 0.00 45 1006.1
20260509182541 60 304 2.6 11.3 0.00 0.00 0.00 45 1006.0
20260509182039 60 352 3.5 16.5 0.00 0.00 0.00 45 1006.1
20260509181550 60 277 7.8 16.5 0.00 0.00 0.00 46 1006.0
20260509181040 60 355 4.3 13.0 0.00 0.00 0.00 47 1006.0
20260509180540 60 302 5.2 12.2 0.00 0.00 0.00 48 1005.9
20260509180048 59 226 6.1 9.6 0.00 0.00 0.00 50 1006.0
20260509175541 58 296 4.3 9.6 0.00 0.00 0.00 49 1006.0
20260509175040 59 267 4.3 9.6 0.00 0.00 0.00 51 1006.0
20260509174552 59 11 1.7 12.2 0.00 0.00 0.00 51 1006.0
20260509174042 59 257 4.3 12.2 0.00 0.00 0.00 51 1006.0
20260509173544 59 240 3.5 16.5 0.00 0.00 0.00 52 1005.9
20260509173054 59 284 7.0 16.5 0.00 0.00 0.00 52 1005.9
20260509172543 58 10 4.3 11.3 0.00 0.00 0.00 52 1005.9
20260509172043 58 338 2.6 10.4 0.00 0.00 0.00 54 1005.9
20260509171547 58 269 3.5 10.4 0.00 0.00 0.00 53 1005.9
20260509171046 58 17 4.3 12.2 0.00 0.00 0.00 54 1005.8
20260509170543 58 292 3.5 13.0 0.00 0.00 0.00 54 1005.8
20260509170101 58 360 4.3 13.0 0.00 0.00 0.00 55 1005.9
20260509165542 58 33 1.7 13.9 0.00 0.00 0.00 55 1005.7
20260509165043 58 315 4.3 13.9 0.00 0.00 0.00 55 1005.7
20260509164553 58 302 6.1 13.9 0.00 0.00 0.00 55 1005.8
20260509164047 58 290 5.2 11.3 0.00 0.00 0.00 54 1005.7
20260509163545 58 324 5.2 13.0 0.00 0.00 0.00 57 1005.7
20260509163110 58 13 5.2 16.5 0.00 0.00 0.00 57 1005.7
20260509162546 57 298 7.0 16.5 0.00 0.00 0.00 57 1005.6
20260509162041 57 9 5.2 12.2 0.00 0.00 0.00 59 1005.6
20260509161552 57 252 5.2 12.2 0.00 0.00 0.00 58 1005.5
20260509161046 57 249 5.2 13.0 0.00 0.00 0.00 59 1005.3
20260509160543 57 245 5.2 13.0 0.00 0.00 0.00 57 1005.4
20260509160049 57 290 6.1 13.0 0.00 0.00 0.00 58 1005.3
20260509155543 57 282 5.2 13.0 0.00 0.00 0.00 59 1005.2
20260509155043 57 336 4.3 9.6 0.00 0.00 0.00 59 1005.1
20260509154554 57 280 3.5 10.4 0.00 0.00 0.00 57 1005.0
20260509154046 57 277 5.2 13.9 0.00 0.00 0.00 58 1005.0
20260509153544 57 324 5.2 13.9 0.00 0.00 0.00 57 1004.8
20260509153058 57 36 3.5 11.3 0.00 0.00 0.00 56 1004.8
20260509152543 57 360 2.6 11.3 0.00 0.00 0.00 55 1004.6
20260509152045 57 248 4.3 11.3 0.00 0.00 0.00 55 1004.6
20260509151554 57 245 3.5 11.3 0.00 0.00 0.00 56 1004.4
20260509151044 57 259 2.6 11.3 0.00 0.00 0.00 56 1004.3
20260509150543 57 345 3.5 11.3 0.00 0.00 0.00 56 1004.3
20260509150054 57 317 4.3 10.4 0.00 0.00 0.00 56 1004.2
20260509145543 57 315 2.6 9.6 0.00 0.00 0.00 56 1004.0
20260509145044 56 290 2.6 9.6 0.00 0.00 0.00 58 1003.9
20260509144553 56 291 2.6 8.7 0.00 0.00 0.00 58 1003.8
20260509144043 55 278 2.6 8.7 0.00 0.00 0.00 59 1003.8
20260509143544 54 192 1.7 5.2 0.00 0.00 0.00 58 1003.8
20260509143055 54 291 0.9 7.0 0.00 0.00 0.00 57 1003.9
20260509142543 54 309 1.7 7.0 0.00 0.00 0.00 59 1003.9
20260509142047 53 251 0.9 2.6 0.00 0.00 0.00 63 1003.9
20260509141559 53 0 0.9 2.6 0.00 0.00 0.00 64 1003.9
20260509141048 53 0 0.0 2.6 0.00 0.00 0.00 65 1003.8
20260509140543 52 0 0.0 1.7 0.00 0.00 0.00 66 1003.8
20260509140057 52 0 0.0 0.0 0.00 0.00 0.00 67 1003.8
20260509135541 52 0 0.0 0.9 0.00 0.00 0.00 68 1003.6
20260509135043 51 0 0.0 1.7 0.00 0.00 0.00 69 1003.6
20260509134551 51 0 0.0 2.6 0.00 0.00 0.00 67 1003.8
20260509134043 51 355 0.9 2.6 0.00 0.00 0.00 70 1003.8
20260509133544 51 0 0.0 2.6 0.00 0.00 0.00 72 1003.5
20260509133051 50 342 0.0 2.6 0.00 0.00 0.00 73 1003.5
20260509132543 50 35 0.0 2.6 0.00 0.00 0.00 74 1003.4
20260509132044 49 65 0.0 0.9 0.00 0.00 0.00 75 1003.4
20260509131552 49 0 0.0 0.0 0.00 0.00 0.00 76 1003.2
20260509131041 49 0 0.0 0.0 0.00 0.00 0.00 76 1003.5
20260509130546 48 0 0.0 0.0 0.00 0.00 0.00 76 1003.6